• Join FlightAware (Why Join?)
  • Login
  • US Flag 
03:56AM EST


 

Airport Tracker/Info


-or-


 

Live Flight TrackerFlight Track Log ✈ EGF3994 ✈ 23-Apr-2013 ✈ KORD - KDAY

Flight Track Log - Related Links

Times and Time Zones

All times are in EDT time to prevent confusion due to time zone crossing. See the EGF3994 flight status page for this flight to view local times or setup timezone preferences in your user account.

Time Position Orientation Groundspeed Altitude Reporting Facility
EDT Latitude Longitude Course Direction KTS MPH feet Rate Location/Type
06:52PM 41.9333 -87.9000 90° East 195 224 2,400  Level Chicago TRACON
06:54PM 41.9643 -87.5095 98° East  Level FlightAware Approximate
06:54PM 41.8900 -87.7589 112° Southeast 255 293 7,500  Level Chicago Center
06:55PM 41.9514 -87.3805 98° East  Level FlightAware Approximate
06:55PM 41.8967 -87.6506 85° East 284 327 9,700  Level Chicago Center
06:56PM 41.9418 -87.2509 95° East  Level FlightAware Approximate
06:56PM 41.9058 -87.5333 84° East 307 353 11,700  Level Chicago Center
06:57PM 41.9333 -87.1213 90° East  Level FlightAware Approximate
06:57PM 41.9181 -87.4011 83° East 349 402 13,100  Level Chicago Center
06:58PM 41.9286 -87.2608 84° East 373 429 14,600 1,500 Climbing Chicago Center
06:59PM 41.9428 -87.0869 84° East 390 449 16,300 1,560 Climbing Chicago Center
07:00PM 41.9475 -86.9358 88° East 405 466 17,900 1,500 Climbing Chicago Center
07:01PM 41.9492 -86.7803 89° East 415 478 19,500 1,500 Climbing Chicago Center
07:02PM 41.9519 -86.6350 88° East 426 490 21,000 1,260 Climbing Chicago Center
07:03PM 41.9525 -86.4350 90° East 447 514 22,200 960 Climbing Chicago Center
07:04PM 41.9542 -86.2600 89° East 465 535 23,000 360 Climbing Chicago Center
07:05PM 41.9181 -86.0886 106° East 481 554 23,000  Level Chicago Center
07:06PM 41.8697 -85.9225 111° Southeast 477 549 23,000  Level Chicago Center
07:07PM 41.8197 -85.7567 112° Southeast 479 551 23,000  Level Chicago Center
07:08PM 41.7697 -85.5894 112° Southeast 483 556 23,000  Level Chicago Center
07:09PM 41.6594 -85.4772 143° Southeast 451 519 23,000  Level Chicago Center
07:10PM 41.5422 -85.4247 161° South 442 509 23,000 -240 Level Chicago Center
07:11PM 41.4294 -85.3767 162° South 433 498 22,600 -720 Descending Chicago Center
07:12PM 41.3175 -85.3292 162° South 426 490 21,600 -1,200 Descending Chicago Center
07:13PM 41.1986 -85.2236 146° Southeast 444 511 20,200 -1,440 Descending Chicago Center
07:14PM 41.1164 -85.1103 134° Southeast 433 498 18,700 -1,500 Descending Chicago Center
07:15PM 41.0317 -85.0025 136° Southeast 425 489 17,200 -1,440 Descending Chicago Center
07:16PM 40.9481 -84.8928 135° Southeast 425 489 15,800 -1,080 Descending Chicago Center
07:17PM 40.8697 -84.7881 135° Southeast 411 473 15,000 -420 Descending Chicago Center
07:18PM 40.7756 -84.6689 136° Southeast 395 455 15,000  Level Chicago Center
07:20PM 40.6953 -84.5642 135° Southeast 403 464 15,000 -480 Level Chicago Center
07:21PM 40.6150 -84.4611 136° Southeast 405 466 14,100 -960 Descending Chicago Center
07:21PM 40.5881 -84.4281 137° Southeast 404 465 13,800 -960 Descending Indianapolis Center
07:21PM 40.5789 -84.4144 132° Southeast 405 466 13,600 -1,080 Descending Indianapolis Center
07:23PM 40.4169 -84.2592 144° Southeast 361 415 11,700 -1,080 Descending Indianapolis Center
07:23PM 40.3944 -84.2536 169° South 366 421 11,400 -1,140 Descending Indianapolis Center
07:24PM 40.3317 -84.2531 180° South 323 372 10,700 -1,080 Descending Indianapolis Center
07:24PM 40.3058 -84.2506 176° South 322 371 10,300 -1,320 Descending Indianapolis Center
07:25PM 40.2525 -84.2453 176° South 273 314 9,400 -1,500 Descending Indianapolis Center
07:25PM 40.2300 -84.2422 174° South 279 321 8,800 -1,680 Descending Indianapolis Center
07:26PM 40.1822 -84.2358 174° South 246 283 7,700 -1,680 Descending Indianapolis Center
07:26PM 40.1603 -84.2336 176° South 257 296 7,100 -1,440 Descending Indianapolis Center